When you browse on this site, cookies collect data to enhance your experience and personalize the content and advertising you see.
Visit our Privacy Policy to learn more. By continuing to use the site, you agree to this use of cookies and data.
  • In Hungary
  • List of Countries
  • For 7 days
  • Water Temperature
  • Satellite Maps
  • Weather Map
  • News
  • Weather Widgets
  • user-avatar
    Login

    Hourly Weather Novonikolaevskoe

    Today, 12 December, Wednesday

    Time Temperature Precipitation Wind Pressure Humidity
    00:00 -7°C° 0 mm 1 mps 749 mmHg 90%
    01:00 -6°C° 0 mm 1 mps 749 mmHg 89%
    02:00 -6°C° 0 mm 1 mps 749 mmHg 88%
    03:00 -6°C° 0 mm 1 mps 749 mmHg 87%
    04:00 -7°C° 0 mm 2 mps 750 mmHg 88%
    05:00 -6°C° 0 mm 1 mps 750 mmHg 87%
    06:00 -6°C° 0 mm 1 mps 749 mmHg 85%
    07:00 -4°C° 0 mm 1 mps 749 mmHg 84%
    08:00 -4°C° 0 mm 1 mps 749 mmHg 82%
    09:00 -4°C° 0 mm 1 mps 749 mmHg 80%
    10:00 -6°C° 0 mm 2 mps 749 mmHg 78%
    11:00 -5°C° 0 mm 2 mps 749 mmHg 77%
    12:00 -4°C° 0 mm 2 mps 749 mmHg 76%
    13:00 -3°C° 0 mm 2 mps 749 mmHg 75%
    14:00 -4°C° 0 mm 2 mps 748 mmHg 75%
    15:00 -5°C° 0 mm 2 mps 748 mmHg 75%
    16:00 -5°C° 0 mm 2 mps 748 mmHg 74%
    17:00 -6°C° 0 mm 2 mps 748 mmHg 73%
    18:00 -6°C° 0 mm 2 mps 748 mmHg 72%
    19:00 -6°C° 0 mm 2 mps 748 mmHg 71%
    20:00 -6°C° 0 mm 2 mps 748 mmHg 70%
    21:00 -6°C° 0 mm 2 mps 748 mmHg 70%
    22:00 -7°C° 0 mm 2 mps 748 mmHg 69%
    23:00 -6°C° 0 mm 2 mps 748 mmHg 69%

    Tomorrow, 13 December, Thursday

    Time Temperature Precipitation Wind Pressure Humidity
    00:00 -6°C° 0 mm 2 mps 748 mmHg 69%
    01:00 -6°C° 0 mm 2 mps 748 mmHg 69%
    02:00 -6°C° 0 mm 2 mps 748 mmHg 69%
    03:00 -6°C° 0 mm 2 mps 748 mmHg 69%
    04:00 -6°C° 0 mm 2 mps 748 mmHg 68%
    05:00 -6°C° 0 mm 2 mps 748 mmHg 68%
    06:00 -6°C° 0 mm 2 mps 748 mmHg 67%
    07:00 -6°C° 0 mm 2 mps 748 mmHg 67%
    08:00 -5°C° 0 mm 2 mps 748 mmHg 68%
    09:00 -5°C° 0 mm 2 mps 748 mmHg 69%
    10:00 -4°C° 0 mm 2 mps 748 mmHg 71%
    11:00 -4°C° 0 mm 2 mps 748 mmHg 71%
    12:00 -3°C° 0 mm 2 mps 748 mmHg 71%
    13:00 -2°C° 0 mm 2 mps 748 mmHg 72%
    14:00 -3°C° 0 mm 2 mps 748 mmHg 72%
    15:00 -4°C° 0 mm 2 mps 748 mmHg 72%
    16:00 -6°C° 0 mm 3 mps 748 mmHg 72%
    17:00 -6°C° 0 mm 3 mps 748 mmHg 72%
    18:00 -6°C° 0 mm 3 mps 748 mmHg 72%
    19:00 -7°C° 0 mm 3 mps 748 mmHg 71%
    20:00 -7°C° 0 mm 3 mps 748 mmHg 72%
    21:00 -7°C° 0 mm 3 mps 748 mmHg 72%
    22:00 -7°C° 0 mm 3 mps 748 mmHg 72%
    23:00 -7°C° 0 mm 3 mps 748 mmHg 72%

    Day after tomorrow, 14 December, Friday

    Time Temperature Precipitation Wind Pressure Humidity
    00:00 -7°C° 0 mm 3 mps 748 mmHg 72%
    01:00 -7°C° 0 mm 4 mps 748 mmHg 72%
    02:00 -7°C° 0 mm 4 mps 748 mmHg 72%
    03:00 -7°C° 0 mm 4 mps 747 mmHg 72%
    04:00 -7°C° 0 mm 5 mps 747 mmHg 72%
    05:00 -7°C° 0 mm 5 mps 747 mmHg 71%
    06:00 -6°C° 0 mm 5 mps 747 mmHg 71%
    07:00 -6°C° 0 mm 6 mps 747 mmHg 70%
    08:00 -6°C° 0 mm 6 mps 747 mmHg 70%
    09:00 -5°C° 0 mm 6 mps 747 mmHg 71%
    10:00 -5°C° 0 mm 6 mps 747 mmHg 71%
    11:00 -6°C° 0.1 mm 7 mps 747 mmHg 74%
    12:00 -6°C° 0.1 mm 7 mps 747 mmHg 77%
    13:00 -6°C° 0.1 mm 7 mps 747 mmHg 80%
    14:00 -6°C° 0.2 mm 7 mps 747 mmHg 81%
    15:00 -6°C° 0.2 mm 7 mps 746 mmHg 82%
    16:00 -6°C° 0.2 mm 7 mps 746 mmHg 83%
    17:00 -7°C° 0.3 mm 7 mps 746 mmHg 84%
    18:00 -7°C° 0.3 mm 7 mps 746 mmHg 85%
    19:00 -7°C° 0.3 mm 7 mps 746 mmHg 86%
    20:00 -7°C° 0.4 mm 7 mps 746 mmHg 86%
    21:00 -7°C° 0.4 mm 7 mps 746 mmHg 86%
    22:00 -7°C° 0.4 mm 7 mps 746 mmHg 87%
    23:00 -8°C° 0.2 mm 6 mps 745 mmHg 87%

    15 December, Saturday

    Time Temperature Precipitation Wind Pressure Humidity
    00:00 -8°C° 0.2 mm 6 mps 745 mmHg 87%
    01:00 -8°C° 0.2 mm 6 mps 745 mmHg 87%
    02:00 -7°C° 0.1 mm 5 mps 745 mmHg 87%
    03:00 -7°C° 0.1 mm 5 mps 745 mmHg 87%
    04:00 -7°C° 0.1 mm 5 mps 745 mmHg 87%
    05:00 -8°C° 0 mm 5 mps 745 mmHg 87%
    06:00 -8°C° 0 mm 4 mps 745 mmHg 87%
    07:00 -8°C° 0 mm 4 mps 745 mmHg 87%
    08:00 -8°C° 0 mm 4 mps 745 mmHg 87%
    09:00 -8°C° 0 mm 4 mps 746 mmHg 87%
    10:00 -8°C° 0 mm 4 mps 746 mmHg 87%
    11:00 -7°C° 0 mm 3 mps 746 mmHg 87%
    12:00 -6°C° 0 mm 3 mps 746 mmHg 87%
    13:00 -5°C° 0 mm 2 mps 746 mmHg 87%
    14:00 -5°C° 0 mm 2 mps 746 mmHg 88%
    15:00 -6°C° 0 mm 2 mps 746 mmHg 90%
    16:00 -6°C° 0 mm 2 mps 746 mmHg 91%
    17:00 -4°C° 0 mm 1 mps 746 mmHg 91%
    18:00 -6°C° 0 mm 1 mps 746 mmHg 91%
    19:00 -6°C° 0 mm 1 mps 747 mmHg 92%
    20:00 -6°C° 0 mm 1 mps 747 mmHg 92%
    21:00 -6°C° 0 mm 1 mps 747 mmHg 92%
    22:00 -6°C° 0 mm 1 mps 747 mmHg 92%
    23:00 -6°C° 0 mm 1 mps 747 mmHg 92%

    16 December, Sunday

    Time Temperature Precipitation Wind Pressure Humidity
    00:00 -7°C° 0 mm 1 mps 747 mmHg 93%
    01:00 -7°C° 0 mm 1 mps 747 mmHg 93%
    02:00 -7°C° 0 mm 1 mps 747 mmHg 93%
    03:00 -7°C° 0 mm 1 mps 747 mmHg 94%
    04:00 -7°C° 0 mm 1 mps 748 mmHg 94%
    05:00 -8°C° 0 mm 1 mps 748 mmHg 94%
    06:00 -8°C° 0 mm 1 mps 748 mmHg 94%
    07:00 -8°C° 0 mm 1 mps 748 mmHg 94%
    08:00 -8°C° 0 mm 1 mps 748 mmHg 94%
    09:00 -8°C° 0 mm 1 mps 749 mmHg 93%
    10:00 -7°C° 0 mm 1 mps 749 mmHg 93%
    11:00 -6°C° 0 mm 1 mps 749 mmHg 92%
    12:00 -6°C° 0 mm 1 mps 750 mmHg 91%
    13:00 -4°C° 0 mm 1 mps 750 mmHg 90%
    14:00 -4°C° 0 mm 1 mps 750 mmHg 91%
    15:00 -6°C° 0 mm 1 mps 750 mmHg 92%
    16:00 -6°C° 0 mm 1 mps 751 mmHg 93%
    17:00 -6°C° 0 mm 1 mps 751 mmHg 93%
    18:00 -7°C° 0 mm 1 mps 751 mmHg 94%
    19:00 -7°C° 0 mm 1 mps 752 mmHg 94%
    20:00 -7°C° 0 mm 1 mps 752 mmHg 93%
    21:00 -8°C° 0 mm 1 mps 752 mmHg 93%
    22:00 -8°C° 0 mm 1 mps 752 mmHg 92%
    23:00 -9°C° 0 mm 1 mps 753 mmHg 92%

    17 December, Monday

    Time Temperature Precipitation Wind Pressure Humidity
    00:00 -10°C° 0 mm 1 mps 753 mmHg 91%
    01:00 -10°C° 0 mm 1 mps 753 mmHg 91%
    02:00 -11°C° 0 mm 1 mps 754 mmHg 91%
    03:00 -11°C° 0 mm 1 mps 754 mmHg 91%
    04:00 -11°C° 0 mm 1 mps 754 mmHg 91%
    05:00 -11°C° 0 mm 1 mps 754 mmHg 91%
    06:00 -12°C° 0 mm 1 mps 754 mmHg 91%
    07:00 -12°C° 0 mm 1 mps 754 mmHg 92%
    08:00 -11°C° 0 mm 1 mps 754 mmHg 91%
    09:00 -11°C° 0 mm 1 mps 755 mmHg 91%
    10:00 -11°C° 0 mm 1 mps 755 mmHg 90%
    11:00 -10°C° 0 mm 1 mps 755 mmHg 89%
    12:00 -9°C° 0 mm 1 mps 755 mmHg 88%
    13:00 -8°C° 0 mm 0 mps 755 mmHg 87%
    14:00 -9°C° 0 mm 1 mps 755 mmHg 89%
    15:00 -10°C° 0 mm 1 mps 755 mmHg 90%
    16:00 -11°C° 0 mm 1 mps 755 mmHg 92%
    17:00 -11°C° 0 mm 1 mps 755 mmHg 92%
    18:00 -12°C° 0 mm 1 mps 755 mmHg 93%
    19:00 -12°C° 0 mm 1 mps 756 mmHg 93%
    20:00 -12°C° 0 mm 1 mps 756 mmHg 93%
    21:00 -13°C° 0 mm 0 mps 756 mmHg 93%
    22:00 -13°C° 0 mm 0 mps 756 mmHg 93%
    23:00 -13°C° 0 mm 0 mps 756 mmHg 94%
    Show more